This is the latest recevied weather packets stored in our database for station/object SQ4IXR-4. If no packets are shown the sender has not sent any weather packets the latest 10 day(s).
| Time | Temp. | Humidity | Pressure | Rain* | Wind** | Luminosity | Snow |
|---|---|---|---|---|---|---|---|
| 1777520579 | 1.11° C | 91% | 1034.1 hPa | - | - | - | - |
| 1777519750 | 0.56° C | 92% | 1034.2 hPa | - | - | - | - |
| 1777518926 | 0° C | 89% | 1034.4 hPa | - | - | - | - |
| 1777518104 | 0° C | 88% | 1034.2 hPa | - | - | - | - |
| 1777517279 | 0.56° C | 86% | 1034.2 hPa | - | - | - | - |
| 1777516457 | 0.56° C | 83% | 1034.1 hPa | - | - | - | - |
| 1777515633 | 0.56° C | 80% | 1034.1 hPa | - | - | - | - |
| 1777514811 | 1.11° C | 77% | 1034 hPa | - | - | - | - |
| 1777513989 | 1.11° C | 75% | 1033.9 hPa | - | - | - | - |
| 1777513167 | 1.67° C | 73% | 1033.8 hPa | - | - | - | - |
| 1777512344 | 1.67° C | 70% | 1033.7 hPa | - | - | - | - |
| 1777511522 | 2.22° C | 67% | 1033.6 hPa | - | - | - | - |
| 1777510701 | 2.78° C | 64% | 1033.5 hPa | - | - | - | - |
| 1777509880 | 3.33° C | 61% | 1033.6 hPa | - | - | - | - |
| 1777509057 | 4.44° C | 59% | 1033.5 hPa | - | - | - | - |
| 1777508236 | 4.44° C | 57% | 1033.5 hPa | - | - | - | - |
| 1777507413 | 5° C | 55% | 1033.4 hPa | - | - | - | - |
| 1777506591 | 5° C | 54% | 1033.4 hPa | - | - | - | - |
| 1777505768 | 5.56° C | 53% | 1033.4 hPa | - | - | - | - |
| 1777504946 | 5.56° C | 52% | 1033.4 hPa | - | - | - | - |
| 1777504122 | 5.56° C | 53% | 1033.5 hPa | - | - | - | - |
| 1777503299 | 5.56° C | 52% | 1033.5 hPa | - | - | - | - |
| 1777502477 | 5.56° C | 52% | 1033.3 hPa | - | - | - | - |
| 1777501654 | 5.56° C | 52% | 1033.2 hPa | - | - | - | - |
| 1777500830 | 6.11° C | 51% | 1033.1 hPa | - | - | - | - |
* Rain since midnight (hover to see other rain measurements)
** Current wind speed in m/s (hover to see current wind gust speed)